Le nostre stazioni meteo in Italia

Pubblicità
Il mio iltempo24.it
Firenze/Peretola, Italia (16170): Temperatura & dewpoint: 11.01.2020 20:00:00 - 17.01.2020 20:00:00 (CET)Firenze/Peretola, Italia (16170): velocità del vento: 11.01.2020 20:00:00 - 17.01.2020 20:00:00 (CET)Firenze/Peretola, Italia (16170): direzione del vento: 11.01.2020 20:00:00 - 17.01.2020 20:00:00 (CET)Firenze/Peretola, Italia (16170): reduced air pressure: 11.01.2020 20:00:00 - 17.01.2020 20:00:00 (CET)Firenze/Peretola, Italia (16170): visibility: 11.01.2020 20:00:00 - 17.01.2020 20:00:00 (CET)Firenze/Peretola, Italia (16170): precipitazioni: 11.01.2020 20:00:00 - 17.01.2020 20:00:00 (CET)
Data & Tempo tt [°C] td [°C] ff [km/h] ff [kn] dd ppp [hPa] vv [km] rr [mm]
17.01.2020 20:00:00 - - - - - - - -
17.01.2020 19:00:00 8,7 6,7 4 2 O 1025,4 5 -
17.01.2020 18:00:00 9,0 7,0 2 1 - - 8 -
17.01.2020 17:00:00 10,0 7,0 4 2 NNO - 9 -
17.01.2020 16:00:00 10,4 6,2 2 1 - 1025,5 9 0,0
17.01.2020 15:00:00 9,0 6,0 4 2 - - 8 -
17.01.2020 14:00:00 10,0 6,0 4 2 - - 8 -
17.01.2020 13:00:00 8,5 5,1 2 1 - 1027,0 7 -
17.01.2020 12:00:00 7,0 4,0 2 1 - - 8 -
17.01.2020 11:00:00 6,0 4,0 2 1 - - 8 -
17.01.2020 10:00:00 4,3 3,7 2 1 - 1028,2 8 0,0
17.01.2020 09:00:00 2,0 2,0 2 1 - - 8 -
17.01.2020 08:00:00 1,0 1,0 2 1 - - 8 -
17.01.2020 07:00:00 2,4 2,3 4 2 - 1027,8 8 -
17.01.2020 06:00:00 3,0 2,0 4 2 - - 8 -
17.01.2020 05:00:00 3,0 2,0 2 1 E - 8 -
17.01.2020 04:00:00 3,5 3,2 2 1 - 1028,1 10 0,0
17.01.2020 03:00:00 5,0 4,0 2 1 - - 8 -
17.01.2020 02:00:00 4,0 4,0 5 3 ENE - 8 -
17.01.2020 01:00:00 3,3 3,2 4 2 E 1028,9 8 -
17.01.2020 00:00:00 3,0 3,0 2 1 - - 8 -
16.01.2020 23:00:00 4,0 4,0 4 2 - - 10 -
16.01.2020 22:00:00 5,2 4,6 5 3 ENE 1029,5 10 0,0
16.01.2020 21:00:00 5,0 4,0 8 4 ENE - 10 -
16.01.2020 20:00:00 8,0 6,0 9 5 E - 10 -
16.01.2020 19:00:00 6,1 4,8 2 1 - 1029,5 10 -
16.01.2020 18:00:00 10,0 7,0 2 1 - - 10 -
16.01.2020 17:00:00 12,0 7,0 5 3 O - 10 -
16.01.2020 16:00:00 13,6 6,7 4 2 - 1029,1 10 0,0
16.01.2020 15:00:00 14,0 6,0 2 1 - - 10 -
16.01.2020 14:00:00 13,0 6,0 4 2 - - 10 -
16.01.2020 13:00:00 12,6 6,8 4 2 - 1030,7 10 -
16.01.2020 12:00:00 10,0 6,0 4 2 - - 10 -
16.01.2020 11:00:00 9,0 6,0 4 2 - - 8 -
16.01.2020 10:00:00 7,0 6,4 4 2 - 1032,2 7 0,0
16.01.2020 09:00:00 4,0 4,0 2 1 - - 7 -
16.01.2020 08:00:00 3,0 3,0 4 2 - - 3,0 -
16.01.2020 07:00:00 3,0 3,0 2 1 - 1031,1 10 -
16.01.2020 06:00:00 4,0 4,0 5 3 ONO - 7 -
16.01.2020 05:00:00 - - - - - - - -
16.01.2020 04:00:00 5,4 5,1 4 2 - 1030,4 10 0,0
16.01.2020 03:00:00 6,0 5,0 4 2 - - 10 -
16.01.2020 02:00:00 7,0 6,0 2 1 - - 10 -
16.01.2020 01:00:00 7,3 6,0 4 2 ESE 1030,1 10 -
16.01.2020 00:00:00 8,0 7,0 4 2 ESE - 10 -
15.01.2020 23:00:00 8,0 7,0 2 1 - - 10 -
15.01.2020 22:00:00 8,1 7,0 2 1 - 1029,7 10 0,0
15.01.2020 21:00:00 8,0 6,0 5 3 E - 10 -
15.01.2020 20:00:00 9,0 8,0 2 1 - - 10 -
15.01.2020 19:00:00 9,6 7,8 2 1 - 1029,7 10 -
15.01.2020 18:00:00 11,0 8,0 4 2 OSO - 10 -
15.01.2020 17:00:00 12,0 8,0 5 3 O - 10 -
15.01.2020 16:00:00 12,3 7,8 5 3 O 1028,6 10 0,0
15.01.2020 15:00:00 12,0 8,0 4 2 - - 10 -
15.01.2020 14:00:00 12,0 7,0 4 2 - - 10 -
15.01.2020 13:00:00 11,5 7,3 2 1 - 1029,2 8 -
15.01.2020 12:00:00 11,0 7,0 2 1 - - 6 -
15.01.2020 11:00:00 8,0 7,0 4 2 - - 6 -
15.01.2020 10:00:00 8,0 7,0 2 1 - - 7 -
15.01.2020 09:00:00 6,0 6,0 4 2 ONO - 6 -
15.01.2020 08:00:00 6,0 6,0 2 1 - - 4,5 -
15.01.2020 07:00:00 6,0 5,8 2 1 - 1029,4 4,0 -
15.01.2020 06:00:00 6,0 6,0 2 1 - - 4,0 -
15.01.2020 05:00:00 6,0 6,0 2 1 NO - 5 -
15.01.2020 04:00:00 5,8 5,6 2 1 NO 1028,9 5 0,0
15.01.2020 03:00:00 - - - - - - - -
15.01.2020 02:00:00 6,0 6,0 2 1 OSO - 5 -
15.01.2020 01:00:00 5,7 5,3 0 0 N 1029,2 5 -
15.01.2020 00:00:00 6,0 5,0 4 2 OSO - 5 -
14.01.2020 23:00:00 6,0 5,0 2 1 - - 5 -
14.01.2020 22:00:00 6,4 4,8 4 2 S 1028,7 8 0,0
14.01.2020 21:00:00 6,0 5,0 4 2 OSO - 8 -
14.01.2020 20:00:00 7,0 5,0 2 1 - - 8 -
14.01.2020 19:00:00 6,9 4,9 2 1 - 1028,2 8 -
14.01.2020 18:00:00 7,0 4,0 4 2 ENE - 8 -
14.01.2020 17:00:00 8,0 4,0 4 2 - - 8 -
14.01.2020 16:00:00 8,0 3,5 2 1 - 1027,2 8 0,0
14.01.2020 15:00:00 8,0 4,0 2 1 - - 10 -
14.01.2020 14:00:00 8,0 3,0 4 2 - - 10 -
14.01.2020 13:00:00 7,0 2,8 2 1 - 1026,8 10 -
14.01.2020 12:00:00 6,0 3,0 2 1 - - 10 -
14.01.2020 11:00:00 5,0 2,0 2 1 - - 10 -
14.01.2020 10:00:00 5,0 2,1 4 2 - 1027,8 10 0,0
14.01.2020 09:00:00 2,0 1,0 2 1 NNO - 10 -
14.01.2020 08:00:00 2,0 1,0 2 1 - - 10 -
14.01.2020 07:00:00 2,3 1,0 2 1 - 1026,4 10 -
14.01.2020 06:00:00 1,0 0,0 2 1 - - 10 -
14.01.2020 05:00:00 0,0 0,0 2 1 - - 10 -
14.01.2020 04:00:00 -0,1 -0,4 4 2 - 1026,1 10 0,0
14.01.2020 03:00:00 -1,0 -1,0 5 3 N - 10 -
14.01.2020 02:00:00 0,0 -1,0 4 2 N - 10 -
14.01.2020 01:00:00 0,4 0,0 2 1 OSO 1025,8 10 -
14.01.2020 00:00:00 1,0 0,0 2 1 - - 10 -
13.01.2020 23:00:00 1,0 1,0 2 1 - - 10 -
13.01.2020 22:00:00 2,2 0,6 4 2 - 1025,7 10 0,0
13.01.2020 21:00:00 3,0 2,0 4 2 - - 10 -
13.01.2020 20:00:00 4,0 1,0 4 2 - - 10 -
13.01.2020 19:00:00 4,8 1,5 5 3 E 1025,2 10 -
13.01.2020 18:00:00 6,0 1,0 2 1 - - 10 -
13.01.2020 17:00:00 9,0 2,0 4 2 O - 10 -
13.01.2020 16:00:00 11,6 1,4 2 1 - 1024,7 10 0,0
13.01.2020 15:00:00 11,0 1,0 2 1 - - 10 -
13.01.2020 14:00:00 11,0 2,0 2 1 - - 10 -
13.01.2020 13:00:00 8,3 1,4 4 2 - 1026,4 10 -
13.01.2020 12:00:00 6,0 1,0 4 2 - - 10 -
13.01.2020 11:00:00 4,0 1,0 4 2 - - 10 -
13.01.2020 10:00:00 2,7 -0,2 2 1 - 1027,8 10 0,0
13.01.2020 09:00:00 -1,0 -1,0 2 1 - - 10 -
13.01.2020 08:00:00 -1,0 -2,0 2 1 - - 10 -
13.01.2020 07:00:00 -2,1 -2,6 4 2 - 1026,9 10 -
13.01.2020 06:00:00 -2,0 -3,0 2 1 ESE - 10 -
13.01.2020 05:00:00 0,0 -1,0 4 2 SSO - 10 -
13.01.2020 04:00:00 -1,3 -1,7 2 1 - 1027,1 10 0,0
13.01.2020 03:00:00 0,0 -1,0 2 1 - - 10 -
13.01.2020 02:00:00 1,0 0,0 2 1 - - 10 -
13.01.2020 01:00:00 0,1 -1,5 4 2 - 1026,7 10 -
13.01.2020 00:00:00 1,0 -1,0 8 4 ENE - 10 -
12.01.2020 23:00:00 1,0 -1,0 5 3 ENE - 10 -
12.01.2020 22:00:00 2,7 1,0 4 2 ENE 1026,7 10 0,0
12.01.2020 21:00:00 5,0 2,0 2 1 - - 10 -
12.01.2020 20:00:00 6,0 2,0 4 2 - - 10 -
12.01.2020 19:00:00 6,6 1,2 5 3 SE 1026,1 10 -
12.01.2020 18:00:00 9,0 1,0 2 1 - - 10 -
12.01.2020 17:00:00 11,0 1,0 8 4 NE - 10 -
12.01.2020 16:00:00 13,8 1,6 5 3 E 1025,7 10 0,0
12.01.2020 15:00:00 15,0 2,0 4 2 - - 10 -
12.01.2020 14:00:00 14,0 3,0 5 3 S - 10 -
12.01.2020 13:00:00 13,6 2,6 5 3 S 1027,1 10 -
12.01.2020 12:00:00 13,0 3,0 4 2 - - 10 -
12.01.2020 11:00:00 11,0 4,0 8 4 SSE - 10 -
12.01.2020 10:00:00 10,3 3,9 8 4 N 1028,8 10 0,0
12.01.2020 09:00:00 9,0 3,0 4 2 - - 10 -
12.01.2020 08:00:00 8,0 3,0 9 5 - - 10 -
12.01.2020 07:00:00 8,9 3,2 5 3 - 1028,8 10 -
12.01.2020 06:00:00 8,0 3,0 2 1 - - 10 -
12.01.2020 05:00:00 10,0 3,0 13 7 NNO - 10 -
12.01.2020 04:00:00 9,2 2,6 15 8 N 1028,6 10 0,0
12.01.2020 03:00:00 6,0 2,0 5 3 - - 10 -
12.01.2020 02:00:00 9,0 2,0 16 9 ENE - 10 -
12.01.2020 01:00:00 8,6 1,5 13 7 NNE 1028,3 10 -
12.01.2020 00:00:00 9,0 2,0 4 2 - - 10 -
11.01.2020 23:00:00 10,0 2,0 11 6 N - 10 -
11.01.2020 22:00:00 10,7 2,1 15 8 N 1027,7 10 0,0
11.01.2020 21:00:00 10,0 2,0 11 6 NNO - 10 -
11.01.2020 20:00:00 11,0 2,0 15 8 N - 10 -

tt = Temperatura
td = dewpoint
ff = velocità del vento
dd = direzione del vento
ppp = reduced air pressure
vv = visibility
rr = precipitazioni

Stazioni seguenti

WeatherPro
AMSI
MeteoEarth